GFSSW_850_spd_096.txt.gz
Wind_Speed
16 18 21 27 25 26 24 25 24 23 20 40 33 25 23 18 21 20 9 6 14 16 6 13 22 12 7 6 5 3 2 5 5 5 7 16 6 4 6 9 8 4 11 22 22
17 19 21 24 25 24 24 24 23 24 22 29 35 27 28 26 18 21 14 10 11 18 5 12 20 14 10 7 5 5 3 8 2 2 9 14 11 10 6 12 6 7 14 15 21
21 20 21 24 23 24 24 24 23 25 25 24 24 18 14 8 8 28 15 14 15 13 17 23 24 12 13 7 5 5 4 6 10 8 17 14 7 10 7 6 14 15 17 16 21
23 22 21 24 25 24 24 23 24 25 23 23 22 19 18 14 6 11 20 17 19 17 21 19 21 13 8 4 10 4 3 4 5 5 10 13 11 5 3 6 13 9 15 18 20
26 24 21 24 25 24 24 23 24 24 23 22 21 20 21 16 14 9 12 21 23 21 22 18 16 18 9 10 7 3 6 7 9 9 7 11 8 4 6 7 9 13 12 16 18
26 24 22 24 24 24 24 23 24 23 22 21 21 21 19 14 16 13 10 21 25 21 20 18 13 20 5 9 8 9 10 14 9 9 5 7 4 3 6 11 8 10 15 15 17
29 25 23 25 24 24 24 23 23 23 21 20 21 23 17 15 7 11 9 23 24 25 23 22 10 15 4 3 8 15 6 6 9 10 3 4 3 5 12 11 10 10 13 14 15
34 29 24 26 25 25 23 24 22 21 20 20 19 20 7 16 15 11 14 21 19 18 16 17 16 13 1 5 5 6 5 6 3 6 1 3 3 5 13 12 10 9 12 14 15
37 32 29 25 28 26 23 22 22 21 19 19 18 12 8 10 16 12 16 21 19 18 15 18 16 6 6 4 4 7 6 6 4 4 5 4 3 5 8 7 10 13 13 13 12
38 35 31 27 29 27 26 24 22 20 19 17 5 9 11 9 17 17 19 16 17 17 12 10 8 4 4 6 9 7 4 8 7 7 2 5 4 6 8 8 6 9 11 10 12
39 36 34 30 31 30 31 30 20 9 22 9 10 3 14 15 16 17 21 19 14 17 6 15 5 11 10 8 9 8 8 5 5 2 4 7 5 8 16 12 9 10 15 13 11
41 39 35 29 32 34 38 23 26 9 10 12 5 13 8 12 8 16 23 12 11 8 9 4 10 10 9 11 8 2 8 6 5 5 1 6 9 7 10 11 13 13 13 12 13
41 39 34 29 33 36 41 19 23 21 8 11 10 15 8 14 6 22 28 9 8 9 11 7 6 7 5 3 5 4 6 5 5 4 2 1 5 7 3 7 10 12 11 10 11
38 38 35 33 35 39 40 21 23 21 6 9 8 8 13 11 4 20 28 6 7 15 8 5 3 7 8 5 7 5 4 9 11 7 3 5 4 6 6 7 7 10 11 11 12
40 43 39 38 22 38 40 19 18 10 5 14 12 13 16 9 18 12 20 6 8 9 6 4 6 7 4 5 4 3 7 6 5 4 1 3 2 4 9 7 7 12 12 11 8
35 39 40 36 19 36 26 23 14 3 6 6 9 10 10 7 5 12 9 4 6 5 3 3 1 2 4 4 5 7 8 6 3 3 1 7 6 4 5 8 7 14 14 15 13
44 40 39 39 24 32 24 19 5 4 6 8 8 11 16 8 6 7 13 5 6 7 7 4 3 2 2 8 2 5 7 2 1 0 5 6 4 8 2 1 10 14 18 16 15
29 39 38 33 28 35 30 7 7 15 15 4 10 13 13 13 4 10 12 11 9 7 8 8 4 9 5 5 8 8 7 5 6 5 4 5 6 6 2 4 21 23 22 18 18
27 35 37 28 31 39 27 13 13 11 13 8 14 15 9 12 6 7 13 16 12 10 6 7 3 4 3 3 6 6 6 3 7 2 3 4 5 1 3 3 17 24 24 21 19
18 24 26 32 30 37 15 21 11 2 15 14 9 12 20 17 9 10 17 14 9 12 2 3 5 3 0 1 1 3 7 3 1 5 4 5 4 6 7 10 10 15 24 23 22
10 10 7 29 27 26 17 15 13 1 15 11 8 8 17 15 13 10 15 7 16 14 7 0 5 0 3 6 8 3 5 4 5 5 5 3 6 3 14 18 16 19 25 28 26
5 2 8 12 4 12 14 11 15 7 3 4 2 6 13 16 12 11 12 7 23 18 12 2 5 4 2 1 2 3 5 7 5 5 1 4 5 2 3 17 24 25 28 28 27
6 4 3 16 4 7 1 18 11 9 6 4 5 3 2 14 7 9 7 2 8 10 15 8 3 4 3 3 1 5 5 5 2 3 5 5 6 3 1 13 23 25 29 31 29
5 3 2 3 2 2 9 15 20 9 4 4 4 5 3 8 5 12 5 1 4 8 8 13 3 6 10 5 7 6 8 8 7 3 5 7 8 4 6 12 20 27 31 33 31
1 3 3 3 2 2 2 3 19 9 6 7 4 7 7 5 9 4 7 3 3 4 4 6 8 8 13 8 6 8 12 13 11 18 10 23 14 8 10 12 26 29 29 33 34
3 3 2 4 8 4 3 3 8 10 3 6 6 10 9 6 6 6 9 6 5 2 5 2 3 8 5 8 1 3 9 18 22 25 18 18 12 8 22 26 24 32 34 34 37
3 6 5 6 5 3 3 2 3 5 3 5 4 5 9 3 11 5 10 14 12 11 11 8 5 3 5 4 5 4 16 12 16 19 20 21 27 3 7 17 25 30 39 40 39

GFSSW_850_spd_102.txt.gz
Wind_Speed
31 27 29 31 38 38 37 26 28 27 25 33 32 24 20 19 20 22 24 12 12 17 34 29 14 18 4 1 1 2 4 3 5 7 5 8 5 5 7 11 6 6 17 23 34
30 28 28 34 38 39 35 31 26 26 21 30 33 27 21 17 19 20 15 19 14 16 34 24 23 13 3 7 4 2 3 7 5 6 7 10 10 12 7 9 5 9 11 37 36
31 30 27 32 34 36 35 33 29 25 20 32 34 26 19 15 12 20 18 18 17 16 28 18 23 16 1 12 5 1 4 3 3 5 20 16 12 5 19 2 12 25 31 39 38
31 32 28 34 34 34 37 31 31 27 26 31 34 25 20 18 8 13 21 21 21 18 17 29 24 16 7 4 8 5 7 5 3 7 16 15 14 7 7 6 16 20 27 35 39
30 32 29 33 33 33 31 28 31 31 28 28 28 33 24 16 19 7 28 22 20 21 17 22 30 13 8 6 19 5 6 3 4 10 11 18 10 7 10 11 19 25 29 32 38
28 33 32 33 30 35 32 29 29 27 27 24 24 35 29 13 21 21 16 32 25 24 21 21 26 17 16 8 12 8 11 3 4 7 8 9 6 11 12 12 29 28 29 29 35
32 33 31 31 32 34 32 31 28 27 25 24 24 27 26 26 11 22 9 35 30 25 26 24 20 25 14 1 38 25 3 2 3 4 3 13 2 5 19 19 31 30 28 27 31
28 33 31 32 34 32 32 31 28 27 26 24 23 23 10 23 15 23 15 30 28 21 28 26 21 34 16 12 2 8 4 4 3 6 3 3 7 7 22 26 31 29 27 26 28
27 35 32 32 34 31 32 31 27 25 26 25 23 13 6 14 22 15 13 28 27 28 24 21 21 15 22 3 1 1 5 4 2 8 3 3 6 7 22 24 29 28 27 27 26
31 35 36 34 35 33 32 30 26 27 25 23 18 8 11 15 22 21 15 27 32 24 17 15 17 6 6 6 14 6 4 3 5 6 4 5 7 3 21 23 26 26 26 27 29
30 34 38 38 37 37 37 39 31 15 36 10 20 6 5 16 18 20 22 25 29 17 8 9 6 20 19 4 5 6 5 6 3 3 5 8 5 9 15 15 17 22 24 27 29
31 39 42 41 40 40 44 35 38 18 11 12 13 7 6 15 14 22 28 16 24 18 14 4 18 9 9 8 5 5 7 5 1 1 3 4 9 5 8 12 24 23 24 29 28
30 40 44 44 42 41 47 28 25 33 9 8 11 22 15 12 7 31 32 13 14 11 14 13 9 9 8 6 8 5 6 5 4 4 2 5 6 4 8 16 18 20 24 28 31
33 42 45 44 43 45 44 26 24 17 4 7 10 14 13 13 3 32 37 17 6 19 9 5 7 12 7 16 13 9 7 8 7 5 5 4 5 6 8 9 9 23 25 30 30
37 43 53 54 38 48 45 32 38 5 7 11 8 8 17 12 16 20 34 8 8 7 7 8 9 7 14 15 9 8 7 9 7 4 5 3 2 7 2 8 9 23 30 27 30
32 52 56 54 37 46 40 30 18 3 4 6 12 10 11 9 6 20 22 8 7 5 4 6 4 8 9 4 7 8 7 6 5 3 3 6 7 5 6 9 9 9 31 31 28
22 45 65 57 44 51 37 28 5 7 6 7 9 14 16 7 4 5 16 8 7 8 13 3 3 1 3 6 2 5 9 2 0 1 6 2 3 8 5 8 7 16 31 30 28
18 41 56 52 48 57 41 9 7 11 10 5 8 15 12 10 3 7 13 12 8 4 6 10 6 7 5 6 7 6 9 6 7 4 3 3 6 6 7 9 11 15 31 27 27
20 41 50 40 50 57 32 17 11 13 9 9 11 17 4 9 7 5 12 22 11 8 7 7 4 2 2 2 8 6 5 6 7 3 3 5 6 9 4 7 6 13 26 32 30
12 33 33 48 53 48 15 14 3 7 10 16 8 10 13 20 7 10 15 16 9 9 4 6 3 1 1 2 1 7 8 3 2 5 4 4 4 5 7 12 9 12 26 32 28
9 7 21 48 61 34 19 10 5 14 18 7 6 6 8 13 9 10 16 2 13 9 3 5 4 1 3 6 9 4 4 2 5 4 5 1 6 8 13 17 14 16 28 32 30
3 1 13 53 14 9 15 9 8 4 9 4 6 5 9 14 5 11 13 7 27 14 9 3 5 4 5 1 2 1 7 6 7 7 1 3 6 3 7 8 15 20 29 30 29
1 3 9 43 11 16 7 8 3 4 5 7 5 4 5 13 5 5 7 9 21 12 14 8 2 3 4 3 2 5 4 5 5 3 8 5 6 1 2 5 13 23 29 32 31
1 1 6 8 3 18 12 19 16 3 2 3 5 5 7 5 2 9 7 3 8 24 16 14 4 8 10 6 9 7 8 6 5 2 4 7 10 6 5 6 7 21 30 33 34
4 2 2 3 2 18 10 16 18 7 2 2 2 6 8 5 7 6 5 3 2 6 10 8 7 5 1 5 5 3 10 15 13 22 11 24 10 12 8 8 15 19 23 30 34
2 2 5 3 5 14 15 18 22 3 3 2 6 5 3 7 8 8 9 5 6 1 7 1 2 5 3 5 5 2 8 15 20 15 15 14 13 8 10 11 15 24 29 35 40
5 6 3 4 3 3 5 9 23 9 4 4 4 5 6 3 3 6 13 15 11 9 7 9 6 4 13 3 6 3 14 13 14 18 20 17 24 7 7 11 22 26 31 38 42

GFSSW_850_spd_105.txt.gz
Wind_Speed
41 40 37 35 31 45 45 41 32 32 29 29 28 23 22 22 21 20 23 18 15 9 18 21 30 17 2 4 2 1 3 3 5 7 4 10 4 9 6 14 8 9 7 14 28
41 40 38 37 34 47 45 36 36 33 31 30 32 26 22 20 19 22 26 18 16 14 19 24 26 18 11 4 4 3 2 8 6 6 6 14 12 14 7 9 5 9 10 27 31
41 40 36 38 37 46 43 39 37 36 32 30 35 29 23 21 15 14 19 28 20 19 25 22 18 13 8 4 7 3 4 3 4 7 9 17 12 10 12 3 10 17 22 36 34
42 40 37 39 41 44 42 39 35 34 31 32 37 28 26 22 9 16 14 16 18 20 23 19 16 9 6 2 3 4 2 6 5 4 12 10 15 8 15 6 15 19 22 40 37
41 39 38 36 42 43 40 37 34 30 28 31 39 32 27 23 9 19 22 21 17 19 22 19 20 16 6 9 4 3 6 7 10 7 9 11 6 8 15 7 14 23 33 39 37
31 39 38 36 42 42 39 35 33 30 27 34 39 31 27 15 23 12 29 24 22 21 17 25 15 14 16 8 6 4 19 17 8 6 7 8 2 6 16 11 21 28 36 37 36
32 36 38 36 41 40 40 35 33 33 30 30 32 32 28 24 28 19 19 27 28 27 23 21 11 15 11 6 11 8 9 13 9 4 3 7 1 6 11 14 27 31 34 35 36
29 25 38 38 40 40 39 37 31 32 29 27 26 23 14 36 13 22 22 34 29 16 18 10 6 13 6 5 7 4 5 4 5 6 3 5 9 7 13 20 30 32 34 34 35
22 25 38 39 39 39 38 35 32 28 28 26 25 9 7 13 23 17 24 31 33 20 12 16 10 9 10 5 4 6 10 6 6 7 3 4 7 7 17 22 30 32 33 32 31
22 24 37 39 40 40 38 35 30 25 26 27 18 9 12 15 30 21 18 25 32 22 16 13 14 4 4 8 9 9 8 4 7 5 2 4 7 2 19 23 30 32 32 31 31
19 26 41 42 44 43 42 42 31 13 37 11 19 4 14 17 29 24 19 24 31 26 12 16 10 19 17 12 5 5 7 5 4 3 5 8 8 9 13 18 20 29 31 32 32
27 32 43 44 46 46 48 35 32 16 12 4 17 6 16 23 12 23 28 17 18 16 18 4 21 12 8 8 9 8 7 6 1 1 3 3 11 4 8 14 29 32 33 34 32
24 38 44 47 46 47 48 32 22 35 10 6 26 7 23 16 12 29 32 13 15 17 20 14 4 9 11 7 13 10 11 5 4 4 1 3 7 4 6 15 15 26 29 31 32
22 31 42 49 46 48 39 34 30 20 4 5 7 9 19 15 5 32 33 20 6 17 12 7 16 8 5 15 14 17 4 6 5 5 5 4 5 6 7 10 9 27 27 30 31
20 33 35 55 45 50 45 38 31 6 6 12 8 10 20 15 21 22 35 7 10 9 8 10 14 12 17 19 10 11 6 6 4 3 3 2 1 7 1 10 10 21 32 34 32
18 32 21 53 41 45 46 38 26 4 6 10 14 11 10 9 6 31 27 7 19 6 5 9 8 18 21 11 14 7 4 6 4 2 3 8 7 5 7 8 9 28 36 40 34
15 27 36 55 44 51 47 36 4 6 7 8 9 15 13 6 4 9 17 8 8 8 15 4 4 2 6 8 4 9 8 2 1 2 9 0 4 13 5 8 8 13 33 42 37
14 19 37 52 51 57 46 12 5 13 12 4 8 16 13 9 3 6 14 12 7 6 6 13 9 9 6 7 9 7 10 5 7 4 2 2 7 6 9 11 22 20 20 27 37
13 18 28 45 55 60 41 18 12 12 9 10 11 17 5 7 8 6 13 23 11 9 7 10 10 2 1 3 11 5 7 6 6 2 3 5 7 9 5 9 12 18 17 24 37
9 16 20 56 55 55 21 22 5 6 11 18 9 13 13 22 8 12 16 18 15 10 4 6 5 2 1 2 1 9 10 3 2 4 4 4 5 5 5 11 12 11 28 27 34
6 7 23 34 58 39 20 20 4 7 22 8 7 8 9 14 14 18 19 4 20 10 3 5 4 2 4 6 8 3 4 2 3 5 6 1 6 9 14 17 14 14 19 24 30
7 3 29 24 13 11 18 10 6 6 8 5 6 6 12 15 4 12 15 12 26 15 7 4 5 4 4 0 0 2 6 12 7 9 1 3 7 3 9 9 11 11 16 20 25
1 1 27 21 12 15 14 4 4 7 8 8 5 5 5 11 7 6 7 10 26 17 14 7 2 4 4 2 1 5 4 4 5 4 8 5 10 2 4 7 8 11 17 22 26
1 0 3 5 2 19 20 19 10 4 5 4 6 6 8 8 1 9 8 4 18 17 12 11 4 8 12 8 8 5 6 5 6 4 5 10 11 6 6 7 4 7 14 22 26
2 1 3 2 2 13 15 21 7 7 3 6 2 8 11 5 6 6 5 4 3 8 7 5 6 5 3 4 7 6 10 14 10 19 11 26 13 16 11 7 8 8 13 20 27
4 2 4 4 4 13 12 23 23 4 6 5 8 7 6 8 9 8 8 6 7 2 16 3 5 5 3 3 3 5 10 13 19 18 21 13 20 8 11 16 9 13 17 23 29
5 9 5 4 3 14 8 15 24 9 3 4 6 6 5 5 5 12 17 15 13 10 14 11 6 4 8 4 5 3 13 13 14 18 19 18 20 6 6 9 20 21 22 25 28

GFSSW_850_spd_111.txt.gz
Wind_Speed
31 39 47 42 47 44 35 41 45 42 33 31 28 26 22 20 22 20 24 20 17 10 18 19 18 11 13 8 6 7 4 3 6 6 3 11 5 7 6 11 7 10 4 8 25
23 35 44 25 49 46 37 45 46 43 36 33 29 26 23 21 21 24 22 21 21 10 20 20 21 21 4 6 4 3 4 8 2 3 1 8 7 14 7 9 5 10 8 17 27
25 25 42 37 51 47 43 44 47 47 40 35 30 28 24 22 18 21 24 17 13 15 17 15 17 18 5 7 4 1 4 2 5 4 4 5 7 12 12 3 13 19 16 23 30
24 28 42 26 51 48 45 40 48 48 41 37 32 29 25 24 8 7 25 21 17 16 18 17 19 12 5 6 7 5 3 4 3 6 0 2 7 8 15 7 11 14 17 27 32
24 24 39 32 52 51 45 38 51 49 44 40 34 31 30 27 8 4 23 24 20 19 21 21 21 11 6 9 8 3 3 3 6 8 3 4 8 6 18 9 5 15 19 27 32
24 28 37 39 48 51 45 41 52 50 43 41 38 34 33 15 16 6 22 26 25 23 20 22 14 11 7 3 4 5 7 5 2 11 3 2 2 6 9 18 9 15 21 27 31
19 26 25 32 50 51 45 41 51 49 48 44 42 38 31 21 13 13 16 23 25 24 22 18 22 15 9 5 3 6 3 5 6 3 2 3 1 7 6 16 14 17 22 27 31
15 21 25 37 49 49 45 42 50 46 47 47 43 36 13 23 16 23 22 22 19 19 21 16 16 17 7 8 5 4 4 2 2 1 2 3 6 5 12 15 17 18 22 26 29
11 22 27 25 51 48 47 43 48 47 47 44 41 29 9 24 21 24 27 23 19 18 19 19 20 8 8 4 4 3 3 3 5 3 2 2 5 3 11 15 18 21 23 25 27
11 26 28 6 44 45 45 45 44 47 49 45 33 18 14 33 27 30 27 24 23 23 17 9 5 4 4 4 5 6 6 4 6 2 1 3 8 6 6 14 18 22 24 26 29
13 15 23 20 41 44 44 46 42 16 54 18 35 8 28 32 27 30 31 29 26 21 5 7 3 9 14 8 5 8 4 10 1 4 1 5 8 11 8 12 16 19 27 29 30
14 13 17 8 44 44 49 47 37 21 18 12 38 14 31 40 20 30 33 18 17 11 8 4 2 5 13 10 8 7 6 1 4 1 2 5 10 11 10 11 20 26 26 31 29
11 12 19 34 43 44 53 40 41 31 9 4 16 17 32 34 23 27 36 15 17 13 9 6 3 7 10 8 8 4 7 2 2 2 3 4 9 8 6 15 20 20 27 27 31
8 10 26 33 37 47 46 33 41 28 4 2 8 8 22 23 6 31 33 18 3 13 9 4 3 12 8 10 10 6 8 6 4 3 4 3 6 6 5 10 9 28 25 31 31
10 13 26 26 5 43 45 36 42 28 7 10 4 16 22 19 28 18 31 7 10 10 7 5 3 8 6 7 8 3 11 5 4 2 2 1 2 7 3 7 7 21 32 31 34
12 17 24 21 17 27 43 45 37 6 7 6 7 6 9 6 7 27 12 6 15 6 3 6 4 7 9 7 9 7 8 8 5 2 4 6 5 5 8 7 6 14 34 34 35
12 14 14 23 14 32 51 39 6 12 11 9 8 11 11 5 7 22 15 8 8 8 6 3 3 4 10 11 4 8 9 3 1 2 7 2 7 13 8 7 8 13 27 34 37
8 10 12 28 24 34 52 11 10 7 9 5 15 19 7 10 4 7 19 12 7 6 8 9 5 8 5 9 8 9 7 5 7 5 4 1 8 6 13 21 19 22 21 22 26
7 6 12 27 17 13 38 13 8 12 9 13 18 19 5 5 8 8 16 20 9 8 7 5 3 2 5 6 12 4 9 4 3 2 2 5 6 9 8 9 13 19 21 26 24
8 6 7 19 17 11 16 9 5 9 14 22 12 12 15 22 7 11 19 16 10 6 3 7 5 0 3 8 2 11 10 5 1 2 4 4 5 6 3 9 7 7 19 24 26
7 4 5 11 13 9 12 9 7 9 25 10 7 8 11 19 9 16 19 2 12 8 4 7 4 1 6 9 11 5 7 4 5 4 4 1 5 7 11 10 8 3 9 17 24
7 2 5 17 4 1 5 7 7 12 6 5 6 4 16 21 6 16 17 14 30 23 11 8 6 4 8 3 5 8 8 14 6 4 2 3 7 2 7 6 5 6 9 12 18
8 2 2 21 2 4 3 2 5 11 6 5 5 3 8 14 6 6 7 16 32 20 21 10 4 4 4 3 2 8 6 15 5 3 8 4 10 4 3 5 10 8 8 10 12
5 2 2 9 4 3 4 10 4 10 4 5 7 8 10 8 0 10 6 3 24 20 17 17 4 8 12 7 7 7 9 10 17 5 14 9 18 9 8 7 5 7 7 9 7
3 1 2 3 4 3 5 7 6 8 4 8 3 14 12 7 9 6 6 4 4 14 6 6 9 5 1 5 6 6 10 13 14 23 13 33 23 14 11 7 16 17 11 7 8
5 3 2 1 4 9 7 9 22 3 8 12 10 14 7 10 18 7 9 5 6 4 8 3 4 6 2 3 4 5 9 15 22 23 18 26 22 3 22 27 14 20 19 23 24
5 6 2 2 2 9 6 6 18 12 4 8 13 10 7 6 17 25 14 20 17 17 16 13 7 4 13 3 5 3 15 15 15 18 19 21 25 5 7 10 19 20 18 23 25

GFSSW_850_spd_117.txt.gz
Wind_Speed
25 31 31 31 28 43 58 45 34 38 40 40 36 32 31 26 25 29 27 25 28 14 19 18 17 16 12 10 6 3 8 11 14 9 5 7 9 8 4 7 6 7 1 4 22
26 29 32 33 32 37 49 54 40 37 37 40 37 34 31 28 27 31 32 25 21 23 15 22 18 15 10 8 4 11 12 15 5 4 3 7 10 10 6 10 8 9 7 14 25
29 27 33 34 35 37 39 53 52 39 39 41 39 37 34 28 20 27 34 28 25 23 17 17 15 14 11 7 2 2 12 6 3 0 1 6 11 8 11 10 10 15 16 17 26
31 30 28 35 36 34 36 47 54 42 41 42 39 39 35 31 14 20 37 34 26 24 18 19 17 15 11 12 10 3 6 1 3 1 2 6 6 10 14 2 1 8 19 21 28
31 31 31 33 36 35 34 46 51 40 43 45 42 40 37 34 31 5 26 34 30 29 22 23 22 16 13 12 13 5 5 4 4 2 4 2 9 13 15 10 4 10 18 22 25
31 31 33 30 38 37 33 42 52 39 44 47 45 44 41 30 33 13 21 36 34 31 24 23 17 19 12 10 12 14 10 9 3 2 2 4 6 3 14 13 8 15 17 20 23
29 30 32 30 38 38 34 40 47 48 48 48 47 48 36 31 26 24 24 34 32 28 27 20 13 18 13 9 9 11 13 9 7 4 3 3 7 11 6 13 13 15 16 18 21
26 29 27 28 37 37 34 37 37 39 48 50 48 45 16 29 18 24 26 25 24 23 24 21 20 15 8 11 12 10 6 8 11 7 3 4 11 8 9 10 16 16 16 17 21
22 26 25 31 31 36 31 40 51 39 49 50 46 27 12 26 25 25 31 28 28 24 21 16 19 7 6 10 9 7 7 13 9 13 4 8 7 4 3 10 13 16 17 18 19
24 19 15 29 31 33 36 36 37 45 49 47 37 15 16 34 29 29 29 27 24 24 14 12 8 4 6 12 10 8 8 14 16 10 10 11 17 14 6 6 12 15 17 19 20
20 16 22 22 25 28 32 33 37 38 56 28 26 17 25 33 30 29 31 26 22 17 7 6 5 12 17 21 16 16 14 11 9 8 7 17 18 20 26 14 11 13 17 19 21
19 16 17 18 18 35 18 42 42 33 40 31 37 25 36 47 26 34 34 21 16 10 10 5 7 14 14 13 11 14 15 14 8 5 5 11 18 16 21 26 23 19 17 20 19
16 18 16 16 18 27 22 37 50 46 17 12 33 32 34 46 35 38 40 20 20 12 13 10 13 7 16 14 13 12 14 11 7 4 8 9 16 21 22 27 28 24 19 19 19
16 11 12 11 14 24 29 35 58 50 9 5 16 16 30 29 22 40 34 17 12 17 9 3 10 13 15 17 16 8 2 3 8 4 6 7 9 12 19 23 20 31 30 26 22
18 15 13 10 8 21 15 52 55 35 13 14 8 22 31 28 39 33 30 11 18 17 10 6 14 17 14 13 17 6 9 8 5 2 5 8 5 7 4 14 19 25 33 33 31
24 18 16 12 21 22 17 59 44 11 10 8 12 12 16 17 32 30 14 7 16 18 6 9 18 14 10 13 8 17 13 10 4 2 5 13 11 11 13 13 14 22 29 33 32
20 18 17 14 20 27 18 59 9 12 11 9 7 12 21 13 17 31 20 11 11 12 11 9 13 4 19 13 8 1 11 3 2 4 6 3 12 16 9 11 9 14 22 25 30
16 15 15 19 19 23 14 10 14 11 11 7 13 20 9 23 20 24 21 16 14 13 13 13 7 13 19 8 13 12 6 5 7 6 3 2 9 4 9 9 17 15 12 12 25
17 14 13 18 13 19 4 5 10 18 13 14 21 20 6 12 12 18 25 25 15 20 12 14 6 12 17 6 20 7 5 1 2 2 1 6 8 10 12 14 9 15 10 10 8
18 13 9 12 13 7 0 6 6 15 21 27 16 11 9 9 19 20 23 22 21 18 13 13 7 10 6 10 7 12 13 4 4 4 6 6 7 8 7 6 8 8 14 11 12
17 7 9 13 9 3 3 3 4 23 29 23 27 13 14 20 24 30 33 19 23 21 11 18 7 9 8 11 14 5 13 6 4 4 3 4 5 3 3 2 3 3 4 4 5
12 3 18 16 3 2 3 4 7 23 25 10 20 21 29 28 17 14 22 14 33 24 16 4 6 11 20 3 9 15 14 15 6 6 8 3 9 7 5 4 3 3 2 2 3
10 3 22 14 4 4 2 3 10 24 24 23 17 12 23 21 12 15 19 14 35 24 21 11 7 9 7 7 7 22 17 19 11 1 6 6 8 12 8 3 6 6 8 0 1
6 3 4 4 4 3 2 4 5 22 14 18 17 21 22 18 11 15 15 11 34 30 17 10 7 10 12 7 14 14 21 17 18 6 12 14 22 7 6 4 3 2 3 5 11
4 3 4 5 5 6 2 3 8 10 3 12 11 21 26 13 11 10 13 7 18 26 8 8 6 9 7 10 17 17 19 21 22 28 15 21 22 18 13 10 12 13 17 15 18
5 4 3 1 7 8 3 4 7 7 13 17 19 27 22 21 14 24 17 20 19 18 15 11 5 9 2 4 12 11 16 22 28 29 22 22 23 11 16 16 16 18 20 19 20
5 6 2 3 6 7 5 1 9 13 7 7 19 25 21 20 13 22 21 16 15 18 18 12 5 4 4 6 6 1 23 23 25 25 25 22 31 8 10 9 12 17 20 22 18

GFSSW_850_spd_123.txt.gz
Wind_Speed
29 30 30 28 26 28 27 25 26 29 29 28 30 24 21 16 17 24 25 22 23 18 11 8 9 9 5 9 16 3 1 3 4 3 3 9 3 7 7 13 6 3 4 3 30
28 26 26 32 28 27 27 26 25 30 33 26 28 30 23 19 23 29 27 23 20 23 18 10 12 9 6 7 6 5 3 5 6 4 2 6 6 9 6 12 5 4 4 10 32
31 29 28 26 30 31 27 28 28 23 34 29 31 31 26 21 24 33 30 27 25 20 20 11 9 12 6 6 8 5 5 5 1 5 5 4 6 6 9 2 12 15 15 20 33
33 30 29 29 28 28 28 28 27 27 26 38 29 33 30 25 8 11 33 33 30 25 22 17 14 11 7 6 10 3 11 5 9 5 2 4 1 6 11 4 9 15 14 23 30
34 29 28 30 30 29 29 29 29 28 23 33 33 32 32 29 33 5 6 32 32 30 26 24 24 15 7 7 9 3 5 11 10 8 5 6 5 4 9 8 2 18 18 22 28
35 31 30 30 30 30 28 29 29 29 25 24 34 30 36 26 34 11 5 26 36 34 30 28 18 22 7 9 12 11 16 6 9 2 6 4 4 4 7 7 13 21 21 21 25
36 32 33 30 31 31 31 29 30 29 25 21 25 27 29 31 23 33 16 16 35 35 34 31 16 22 9 1 12 3 5 5 7 11 4 4 6 6 13 14 22 26 21 21 23
35 33 34 33 32 31 31 29 29 28 24 20 19 23 21 46 21 36 23 26 28 30 30 30 25 22 8 2 5 6 5 3 5 11 8 10 14 10 15 16 25 23 21 20 22
35 33 33 32 31 31 30 27 24 26 26 19 21 27 19 32 30 39 34 29 32 30 19 26 22 8 7 4 3 4 4 5 3 18 4 8 7 15 16 24 25 25 23 22 20
36 33 33 31 30 29 28 24 23 23 26 19 24 14 20 33 42 38 29 29 35 31 20 19 10 5 5 9 12 6 3 6 8 7 5 7 8 6 13 19 22 24 28 28 25
35 32 29 28 27 27 26 20 14 13 30 29 17 23 9 23 40 36 40 38 34 32 10 14 8 21 14 16 5 12 8 10 9 8 7 15 6 12 14 15 19 22 19 30 33
35 31 27 23 26 25 28 26 27 14 16 46 26 42 37 20 31 39 52 26 27 18 11 8 23 17 12 14 13 8 14 8 3 8 9 6 14 8 14 15 21 22 23 23 34
35 32 27 23 21 24 31 34 20 28 3 22 43 45 25 44 40 42 58 34 28 26 24 21 12 17 13 14 15 10 12 7 5 5 1 3 6 8 9 26 30 32 32 29 29
34 34 29 26 22 26 29 23 27 19 4 6 26 21 23 33 21 58 54 36 12 28 24 14 12 19 19 18 15 16 7 5 7 12 4 6 5 5 12 15 20 34 35 37 34
33 32 31 31 17 21 18 26 25 13 6 14 14 22 36 24 30 45 54 22 25 18 12 15 20 25 20 25 18 6 7 8 4 4 4 3 1 7 4 9 18 26 31 38 37
32 32 31 29 16 12 9 11 20 6 9 9 13 22 29 28 38 54 41 20 24 13 7 5 12 13 11 3 10 11 7 8 5 2 4 8 7 5 5 6 4 14 29 40 38
32 30 29 29 20 14 12 6 3 8 4 4 7 11 42 14 22 38 21 19 14 17 14 6 9 3 18 10 6 7 11 3 3 4 7 2 5 9 7 6 4 5 9 27 36
32 29 24 20 14 13 17 2 5 5 8 2 8 21 22 27 22 29 26 23 9 12 22 18 12 16 8 9 13 12 9 5 7 5 4 1 7 6 9 21 16 11 15 10 9
30 22 21 18 14 11 9 3 4 3 0 4 15 26 8 24 10 22 19 25 13 19 15 16 7 6 14 5 15 5 6 4 6 2 3 4 6 8 9 8 7 9 6 11 11
31 22 17 18 16 11 2 2 4 4 4 11 17 18 12 12 11 26 22 27 11 16 5 5 7 6 6 9 2 13 11 5 1 5 3 4 4 6 5 7 7 6 13 12 10
30 12 15 17 19 11 4 6 4 9 9 6 12 10 8 12 12 24 29 20 17 19 6 5 6 3 9 7 13 5 11 4 6 5 5 3 6 7 10 7 8 9 10 13 12
17 5 25 27 4 2 4 7 6 5 14 13 9 12 17 24 14 12 26 21 36 25 18 6 6 6 4 3 6 4 13 4 7 6 3 3 5 4 6 8 10 11 12 12 10
10 9 30 25 5 5 3 5 7 9 11 5 6 21 17 17 12 8 23 3 32 21 20 9 5 9 3 6 3 8 9 7 5 4 6 5 5 2 2 7 12 15 13 16 18
11 5 7 13 6 5 5 6 7 12 16 10 7 11 25 22 10 15 18 5 35 22 17 10 5 6 19 29 9 10 8 5 5 4 5 8 3 4 7 7 10 12 13 19 13
4 3 10 6 10 5 2 1 2 4 11 9 7 19 26 19 11 15 19 10 20 22 5 6 5 4 7 10 9 18 17 13 10 11 9 16 13 9 11 9 20 21 18 15 10
7 5 6 3 8 13 9 5 7 3 6 6 8 19 24 23 15 28 23 21 28 10 11 2 5 5 3 11 15 21 23 24 26 22 17 4 7 11 17 16 18 22 18 13 10
7 8 6 7 5 6 5 6 5 1 11 13 10 18 26 32 16 26 23 11 17 27 25 10 7 6 5 8 11 2 27 29 24 21 25 13 19 9 9 12 17 18 18 15 13